Location: Apeadero de Los Molinos-Guadarrama
(40.7091°N, 4.0689°W)
Time: 12:06:20
(UTC+00:00)

IGS 5A - Pass Details

Date: 14 May 2021
Orbit: 583 x 588 km, 97.6° (Epoch: 06 May)

Event Time Altitude Azimuth Distance (km) Brightness Sun altitude
Exits shadow 20:44:33 20° 149° (SSE) 1,385 4.8 -13.3°
Maximum altitude 20:47:18 60° 75° (ENE) 674 3.5 -13.7°
Drops below altitude 10° 20:51:23 10° 355° (N) 1,914 6.7 -14.3°
Sets 20:53:35 0° 352° (N) 2,819 7.8 -14.6°
